Year,Month,Day,Hour,Minute,Value (Times are PST for windgust in km/hr)
2013,02,26,00,00,1.60
2013,02,26,00,01,3.20
2013,02,26,00,02,1.60
2013,02,26,00,05,3.20
2013,02,26,00,06,6.40
2013,02,26,00,07,6.40
2013,02,26,00,08,4.80
2013,02,26,00,09,4.80
2013,02,26,00,10,3.20
2013,02,26,00,11,3.20
2013,02,26,00,12,3.20
2013,02,26,00,13,4.80
2013,02,26,00,14,4.80
2013,02,26,00,15,6.40
2013,02,26,00,16,6.40
2013,02,26,00,17,6.40
2013,02,26,00,18,4.80
2013,02,26,00,19,4.80
2013,02,26,00,20,6.40
2013,02,26,00,21,4.80
2013,02,26,00,22,8.10
2013,02,26,00,23,6.40
2013,02,26,00,24,4.80
2013,02,26,00,25,6.40
2013,02,26,00,26,6.40
2013,02,26,00,27,6.40
2013,02,26,00,28,4.80
2013,02,26,00,29,4.80
2013,02,26,00,30,4.80
2013,02,26,00,31,4.80
2013,02,26,00,32,3.20
2013,02,26,00,33,3.20
2013,02,26,00,34,3.20
2013,02,26,00,35,3.20
2013,02,26,00,36,1.60
2013,02,26,00,37,3.20
2013,02,26,00,38,3.20
2013,02,26,00,39,3.20
2013,02,26,00,40,4.80
2013,02,26,00,41,4.80
2013,02,26,00,42,4.80
2013,02,26,00,43,4.80
2013,02,26,00,45,3.20
2013,02,26,00,47,3.20
2013,02,26,00,48,1.60
2013,02,26,00,49,1.60
2013,02,26,00,50,4.80
2013,02,26,00,51,4.80
2013,02,26,00,52,3.20
2013,02,26,00,53,4.80
2013,02,26,00,54,9.60
2013,02,26,00,55,4.80
2013,02,26,00,57,1.60
2013,02,26,00,58,1.60
2013,02,26,00,59,3.20
2013,02,26,01,00,4.80
2013,02,26,01,01,4.80
2013,02,26,01,02,3.20
2013,02,26,01,03,1.60
2013,02,26,01,05,3.20
2013,02,26,01,19,3.20
2013,02,26,01,20,1.60
2013,02,26,01,32,1.60
2013,02,26,01,34,4.80
2013,02,26,01,35,3.20
2013,02,26,01,56,3.20
2013,02,26,01,57,3.20
2013,02,26,01,58,1.60
2013,02,26,01,59,4.80
2013,02,26,02,00,3.20
2013,02,26,02,01,3.20
2013,02,26,02,02,3.20
2013,02,26,02,03,3.20
2013,02,26,02,04,3.20
2013,02,26,02,05,3.20
2013,02,26,02,11,3.20
2013,02,26,02,12,4.80
2013,02,26,02,13,3.20
2013,02,26,02,14,1.60
2013,02,26,02,15,3.20
2013,02,26,02,16,4.80
2013,02,26,02,17,3.20
2013,02,26,02,18,3.20
2013,02,26,02,19,3.20
2013,02,26,02,20,3.20
2013,02,26,02,21,3.20
2013,02,26,02,22,4.80
2013,02,26,02,23,4.80
2013,02,26,02,24,4.80
2013,02,26,02,25,4.80
2013,02,26,02,26,4.80
2013,02,26,02,27,4.80
2013,02,26,02,28,3.20
2013,02,26,02,29,3.20
2013,02,26,02,30,4.80
2013,02,26,02,31,4.80
2013,02,26,02,32,3.20
2013,02,26,02,33,3.20
2013,02,26,02,34,3.20
2013,02,26,02,41,1.60
2013,02,26,02,42,1.60
2013,02,26,02,52,8.10
2013,02,26,02,53,6.40
2013,02,26,02,54,4.80
2013,02,26,02,55,4.80
2013,02,26,02,56,4.80
2013,02,26,02,57,4.80
2013,02,26,02,58,4.80
2013,02,26,02,59,3.20
2013,02,26,03,00,6.40
2013,02,26,03,01,6.40
2013,02,26,03,02,6.40
2013,02,26,03,06,4.80
2013,02,26,03,07,1.60
2013,02,26,03,08,3.20
2013,02,26,03,09,4.80
2013,02,26,03,10,4.80
2013,02,26,03,11,3.20
2013,02,26,03,12,4.80
2013,02,26,03,13,4.80
2013,02,26,03,14,4.80
2013,02,26,03,15,4.80
2013,02,26,03,16,3.20
2013,02,26,03,17,4.80
2013,02,26,03,18,3.20
2013,02,26,03,19,3.20
2013,02,26,03,20,4.80
2013,02,26,03,21,4.80
2013,02,26,03,22,4.80
2013,02,26,03,23,4.80
2013,02,26,03,24,1.60
2013,02,26,03,25,4.80
2013,02,26,03,26,4.80
2013,02,26,03,27,3.20
2013,02,26,03,28,4.80
2013,02,26,03,29,4.80
2013,02,26,03,30,6.40
2013,02,26,03,31,4.80
2013,02,26,03,32,4.80
2013,02,26,03,33,4.80
2013,02,26,03,34,4.80
2013,02,26,03,35,4.80
2013,02,26,03,36,4.80
2013,02,26,03,37,1.60
2013,02,26,03,38,1.60
2013,02,26,03,39,4.80
2013,02,26,03,40,1.60
2013,02,26,03,42,3.20
2013,02,26,03,43,3.20
2013,02,26,03,44,6.40
2013,02,26,03,45,6.40
2013,02,26,03,46,3.20
2013,02,26,03,47,4.80
2013,02,26,03,48,6.40
2013,02,26,03,49,6.40
2013,02,26,03,50,8.10
2013,02,26,03,51,4.80
2013,02,26,03,52,6.40
2013,02,26,03,53,6.40
2013,02,26,03,54,9.60
2013,02,26,03,55,6.40
2013,02,26,03,56,8.10
2013,02,26,03,57,9.60
2013,02,26,03,58,8.10
2013,02,26,03,59,8.10
2013,02,26,04,00,6.40
2013,02,26,04,01,8.10
2013,02,26,04,02,4.80
2013,02,26,04,03,6.40
2013,02,26,04,04,8.10
2013,02,26,04,05,8.10
2013,02,26,04,06,8.10
2013,02,26,04,07,6.40
2013,02,26,04,08,6.40
2013,02,26,04,09,8.10
2013,02,26,04,10,6.40
2013,02,26,04,11,4.80
2013,02,26,04,12,1.60
2013,02,26,04,13,1.60
2013,02,26,04,14,3.20
2013,02,26,04,15,1.60
2013,02,26,04,16,3.20
2013,02,26,04,17,1.60
2013,02,26,04,18,4.80
2013,02,26,04,19,4.80
2013,02,26,04,20,3.20
2013,02,26,04,21,4.80
2013,02,26,04,22,3.20
2013,02,26,04,24,1.60
2013,02,26,04,25,4.80
2013,02,26,04,26,1.60
2013,02,26,04,27,6.40
2013,02,26,04,28,4.80
2013,02,26,04,29,3.20
2013,02,26,04,30,3.20
2013,02,26,04,31,6.40
2013,02,26,04,32,4.80
2013,02,26,04,33,6.40
2013,02,26,04,34,6.40
2013,02,26,04,35,9.60
2013,02,26,04,36,6.40
2013,02,26,04,37,6.40
2013,02,26,04,38,6.40
2013,02,26,04,39,4.80
2013,02,26,04,40,4.80
2013,02,26,04,41,6.40
2013,02,26,04,42,6.40
2013,02,26,04,43,6.40
2013,02,26,04,44,4.80
2013,02,26,04,45,3.20
2013,02,26,04,46,3.20
2013,02,26,04,47,3.20
2013,02,26,04,48,4.80
2013,02,26,04,49,3.20
2013,02,26,04,50,4.80
2013,02,26,04,51,4.80
2013,02,26,04,52,3.20
2013,02,26,04,55,1.60
2013,02,26,04,59,1.60
2013,02,26,05,00,1.60
2013,02,26,05,01,1.60
2013,02,26,05,03,4.80
2013,02,26,05,04,4.80
2013,02,26,05,06,1.60
2013,02,26,05,09,1.60
2013,02,26,05,13,4.80
2013,02,26,05,14,3.20
2013,02,26,05,15,3.20
2013,02,26,05,16,3.20
2013,02,26,05,17,6.40
2013,02,26,05,18,1.60
2013,02,26,05,19,3.20
2013,02,26,05,20,3.20
2013,02,26,05,21,1.60
2013,02,26,05,22,1.60
2013,02,26,05,23,4.80
2013,02,26,05,24,3.20
2013,02,26,05,25,1.60
2013,02,26,05,26,4.80
2013,02,26,05,27,6.40
2013,02,26,05,29,3.20
2013,02,26,05,30,3.20
2013,02,26,05,31,3.20
2013,02,26,05,32,3.20
2013,02,26,05,33,4.80
2013,02,26,05,34,4.80
2013,02,26,05,35,6.40
2013,02,26,05,36,4.80
2013,02,26,05,37,1.60
2013,02,26,05,38,4.80
2013,02,26,05,39,8.10
2013,02,26,05,40,6.40
2013,02,26,05,41,6.40
2013,02,26,05,42,4.80
2013,02,26,05,43,4.80
2013,02,26,05,44,4.80
2013,02,26,05,45,4.80
2013,02,26,05,46,4.80
2013,02,26,05,47,4.80
2013,02,26,05,48,6.40
2013,02,26,05,49,6.40
2013,02,26,05,50,6.40
2013,02,26,05,51,6.40
2013,02,26,05,52,4.80
2013,02,26,05,53,6.40
2013,02,26,05,54,6.40
2013,02,26,05,55,6.40
2013,02,26,05,56,6.40
2013,02,26,05,57,6.40
2013,02,26,05,58,6.40
2013,02,26,05,59,4.80
2013,02,26,06,00,3.20
2013,02,26,06,01,6.40
2013,02,26,06,02,8.10
2013,02,26,06,03,6.40
2013,02,26,06,04,6.40
2013,02,26,06,05,8.10
2013,02,26,06,06,4.80
2013,02,26,06,07,4.80
2013,02,26,06,08,6.40
2013,02,26,06,09,8.10
2013,02,26,06,10,8.10
2013,02,26,06,11,6.40
2013,02,26,06,12,6.40
2013,02,26,06,13,8.10
2013,02,26,06,14,8.10
2013,02,26,06,15,8.10
2013,02,26,06,16,8.10
2013,02,26,06,17,6.40
2013,02,26,06,18,6.40
2013,02,26,06,19,4.80
2013,02,26,06,20,4.80
2013,02,26,06,21,4.80
2013,02,26,06,22,8.10
2013,02,26,06,23,8.10
2013,02,26,06,24,6.40
2013,02,26,06,25,6.40
2013,02,26,06,26,6.40
2013,02,26,06,27,6.40
2013,02,26,06,28,8.10
2013,02,26,06,29,8.10
2013,02,26,06,30,8.10
2013,02,26,06,31,6.40
2013,02,26,06,32,4.80
2013,02,26,06,33,4.80
2013,02,26,06,34,3.20
2013,02,26,06,35,3.20
2013,02,26,06,36,6.40
2013,02,26,06,37,4.80
2013,02,26,06,38,6.40
2013,02,26,06,39,6.40
2013,02,26,06,40,6.40
2013,02,26,06,41,8.10
2013,02,26,06,42,6.40
2013,02,26,06,43,6.40
2013,02,26,06,44,6.40
2013,02,26,06,45,4.80
2013,02,26,06,46,4.80
2013,02,26,06,47,4.80
2013,02,26,06,48,1.60
2013,02,26,06,49,1.60
2013,02,26,06,59,1.60
2013,02,26,07,00,1.60
2013,02,26,07,01,1.60
2013,02,26,07,02,1.60
2013,02,26,07,05,1.60
2013,02,26,07,06,1.60
2013,02,26,07,07,4.80
2013,02,26,07,08,1.60
2013,02,26,07,09,1.60
2013,02,26,07,13,3.20
2013,02,26,07,14,3.20
2013,02,26,07,15,3.20
2013,02,26,07,16,4.80
2013,02,26,07,17,4.80
2013,02,26,07,18,4.80
2013,02,26,07,19,1.60
2013,02,26,07,26,4.80
2013,02,26,07,27,4.80
2013,02,26,07,28,3.20
2013,02,26,07,29,3.20
2013,02,26,07,30,1.60
2013,02,26,07,31,1.60
2013,02,26,07,32,3.20
2013,02,26,07,33,3.20
2013,02,26,07,34,3.20
2013,02,26,07,35,1.60
2013,02,26,07,47,1.60
2013,02,26,07,48,4.80
2013,02,26,07,49,3.20
2013,02,26,07,51,3.20
2013,02,26,07,52,4.80
2013,02,26,07,53,3.20
2013,02,26,07,54,1.60
2013,02,26,07,55,3.20
2013,02,26,07,56,4.80
2013,02,26,07,58,3.20
2013,02,26,07,59,4.80
2013,02,26,08,00,3.20
2013,02,26,08,01,6.40
2013,02,26,08,02,4.80
2013,02,26,08,03,4.80
2013,02,26,08,04,3.20
2013,02,26,08,05,3.20
2013,02,26,08,06,3.20
2013,02,26,08,07,1.60
2013,02,26,08,08,4.80
2013,02,26,08,09,4.80
2013,02,26,08,10,4.80
2013,02,26,08,11,1.60
2013,02,26,08,12,3.20
2013,02,26,08,14,1.60
2013,02,26,08,15,3.20
2013,02,26,08,16,3.20
2013,02,26,08,17,3.20
2013,02,26,08,18,1.60
2013,02,26,08,19,3.20
2013,02,26,08,20,1.60
2013,02,26,08,21,4.80
2013,02,26,08,23,1.60
2013,02,26,08,24,4.80
2013,02,26,08,25,3.20
2013,02,26,08,26,1.60
2013,02,26,08,27,3.20
2013,02,26,08,28,8.10
2013,02,26,08,29,4.80
2013,02,26,08,30,4.80
2013,02,26,08,31,1.60
2013,02,26,08,32,3.20
2013,02,26,08,33,6.40
2013,02,26,08,35,4.80
2013,02,26,08,36,4.80
2013,02,26,08,37,3.20
2013,02,26,08,38,11.30
2013,02,26,08,39,8.10
2013,02,26,08,40,6.40
2013,02,26,08,41,4.80
2013,02,26,08,42,8.10
2013,02,26,08,43,4.80
2013,02,26,08,44,4.80
2013,02,26,08,45,3.20
2013,02,26,08,46,4.80
2013,02,26,08,47,6.40
2013,02,26,08,48,6.40
2013,02,26,08,49,6.40
2013,02,26,08,50,9.60
2013,02,26,08,51,9.60
2013,02,26,08,52,9.60
2013,02,26,08,53,11.30
2013,02,26,08,54,11.30
2013,02,26,08,55,4.80
2013,02,26,08,56,4.80
2013,02,26,08,57,3.20
2013,02,26,08,58,3.20
2013,02,26,08,59,1.60
2013,02,26,09,00,11.30
2013,02,26,09,01,6.40
2013,02,26,09,02,3.20
2013,02,26,09,03,1.60
2013,02,26,09,04,6.40
2013,02,26,09,05,8.10
2013,02,26,09,06,14.50
2013,02,26,09,07,8.10
2013,02,26,09,08,3.20
2013,02,26,09,09,1.60
2013,02,26,09,10,4.80
2013,02,26,09,11,6.40
2013,02,26,09,12,9.60
2013,02,26,09,13,9.60
2013,02,26,09,14,4.80
2013,02,26,09,15,11.30
2013,02,26,09,16,8.10
2013,02,26,09,17,11.30
2013,02,26,09,18,6.40
2013,02,26,09,19,9.60
2013,02,26,09,20,14.50
2013,02,26,09,21,11.30
2013,02,26,09,22,14.50
2013,02,26,09,23,14.50
2013,02,26,09,24,11.30
2013,02,26,09,25,12.90
2013,02,26,09,26,11.30
2013,02,26,09,27,11.30
2013,02,26,09,28,14.50
2013,02,26,09,29,11.30
2013,02,26,09,30,12.90
2013,02,26,09,31,11.30
2013,02,26,09,32,9.60
2013,02,26,09,33,14.50
2013,02,26,09,34,11.30
2013,02,26,09,35,9.60
2013,02,26,09,36,8.10
2013,02,26,09,37,9.60
2013,02,26,09,38,9.60
2013,02,26,09,39,11.30
2013,02,26,09,40,9.60
2013,02,26,09,41,9.60
2013,02,26,09,42,9.60
2013,02,26,09,43,17.70
2013,02,26,09,44,14.50
2013,02,26,09,45,11.30
2013,02,26,09,46,8.10
2013,02,26,09,47,8.10
2013,02,26,09,48,11.30
2013,02,26,09,49,9.60
2013,02,26,09,50,11.30
2013,02,26,09,51,11.30
2013,02,26,09,52,11.30
2013,02,26,09,53,16.10
2013,02,26,09,54,8.10
2013,02,26,09,55,8.10
2013,02,26,09,56,16.10
2013,02,26,09,57,12.90
2013,02,26,09,58,11.30
2013,02,26,09,59,8.10
2013,02,26,10,00,8.10
2013,02,26,10,01,8.10
2013,02,26,10,02,11.30
2013,02,26,10,03,16.10
2013,02,26,10,04,16.10
2013,02,26,10,05,17.70
2013,02,26,10,06,11.30
2013,02,26,10,07,14.50
2013,02,26,10,08,11.30
2013,02,26,10,09,16.10
2013,02,26,10,10,20.90
2013,02,26,10,11,11.30
2013,02,26,10,12,17.70
2013,02,26,10,13,14.50
2013,02,26,10,14,6.40
2013,02,26,10,15,9.60
2013,02,26,10,16,16.10
2013,02,26,10,17,9.60
2013,02,26,10,18,8.10
2013,02,26,10,19,11.30
2013,02,26,10,20,16.10
2013,02,26,10,21,9.60
2013,02,26,10,22,8.10
2013,02,26,10,23,8.10
2013,02,26,10,24,9.60
2013,02,26,10,25,16.10
2013,02,26,10,26,6.40
2013,02,26,10,27,8.10
2013,02,26,10,28,17.70
2013,02,26,10,29,11.30
2013,02,26,10,30,11.30
2013,02,26,10,31,9.60
2013,02,26,10,32,6.40
2013,02,26,10,33,9.60
2013,02,26,10,34,9.60
2013,02,26,10,35,8.10
2013,02,26,10,36,9.60
2013,02,26,10,37,8.10
2013,02,26,10,38,8.10
2013,02,26,10,39,12.90
2013,02,26,10,40,16.10
2013,02,26,10,41,14.50
2013,02,26,10,42,4.80
2013,02,26,10,43,6.40
2013,02,26,10,44,8.10
2013,02,26,10,45,14.50
2013,02,26,10,46,19.30
2013,02,26,10,47,19.30
2013,02,26,10,48,11.30
2013,02,26,10,49,11.30
2013,02,26,10,50,16.10
2013,02,26,10,51,11.30
2013,02,26,10,52,14.50
2013,02,26,10,53,8.10
2013,02,26,10,54,11.30
2013,02,26,10,55,17.70
2013,02,26,10,56,16.10
2013,02,26,10,57,17.70
2013,02,26,10,58,11.30
2013,02,26,10,59,8.10
2013,02,26,11,00,6.40
2013,02,26,11,01,9.60
2013,02,26,11,02,16.10
2013,02,26,11,03,11.30
2013,02,26,11,04,12.90
2013,02,26,11,05,11.30
2013,02,26,11,06,9.60
2013,02,26,11,07,6.40
2013,02,26,11,08,11.30
2013,02,26,11,09,12.90
2013,02,26,11,10,9.60
2013,02,26,11,11,16.10
2013,02,26,11,12,17.70
2013,02,26,11,13,20.90
2013,02,26,11,14,22.50
2013,02,26,11,15,9.60
2013,02,26,11,16,16.10
2013,02,26,11,17,17.70
2013,02,26,11,18,17.70
2013,02,26,11,19,17.70
2013,02,26,11,20,17.70
2013,02,26,11,21,11.30
2013,02,26,11,22,11.30
2013,02,26,11,23,19.30
2013,02,26,11,24,19.30
2013,02,26,11,25,14.50
2013,02,26,11,26,16.10
2013,02,26,11,27,19.30
2013,02,26,11,28,14.50
2013,02,26,11,29,16.10
2013,02,26,11,30,14.50
2013,02,26,11,31,9.60
2013,02,26,11,32,16.10
2013,02,26,11,33,16.10
2013,02,26,11,34,17.70
2013,02,26,11,35,19.30
2013,02,26,11,36,11.30
2013,02,26,11,37,19.30
2013,02,26,11,38,16.10
2013,02,26,11,39,11.30
2013,02,26,11,40,14.50
2013,02,26,11,41,9.60
2013,02,26,11,42,20.90
2013,02,26,11,43,16.10
2013,02,26,11,44,14.50
2013,02,26,11,45,14.50
2013,02,26,11,46,17.70
2013,02,26,11,47,19.30
2013,02,26,11,48,17.70
2013,02,26,11,49,14.50
2013,02,26,11,50,8.10
2013,02,26,11,51,8.10
2013,02,26,11,52,17.70
2013,02,26,11,53,19.30
2013,02,26,11,54,14.50
2013,02,26,11,55,16.10
2013,02,26,11,56,14.50
2013,02,26,11,57,8.10
2013,02,26,11,58,14.50
2013,02,26,11,59,6.40
2013,02,26,12,00,11.30
2013,02,26,12,01,9.60
2013,02,26,12,02,9.60
2013,02,26,12,03,11.30
2013,02,26,12,04,9.60
2013,02,26,12,05,4.80
2013,02,26,12,06,11.30
2013,02,26,12,07,9.60
2013,02,26,12,08,8.10
2013,02,26,12,09,9.60
2013,02,26,12,10,6.40
2013,02,26,12,11,6.40
2013,02,26,12,12,9.60
2013,02,26,12,13,6.40
2013,02,26,12,14,14.50
2013,02,26,12,15,8.10
2013,02,26,12,16,9.60
2013,02,26,12,17,11.30
2013,02,26,12,18,6.40
2013,02,26,12,19,9.60
2013,02,26,12,20,14.50
2013,02,26,12,21,11.30
2013,02,26,12,22,4.80
2013,02,26,12,23,8.10
2013,02,26,12,24,9.60
2013,02,26,12,25,8.10
2013,02,26,12,26,6.40
2013,02,26,12,27,9.60
2013,02,26,12,28,6.40
2013,02,26,12,29,4.80
2013,02,26,12,30,11.30
2013,02,26,12,31,9.60
2013,02,26,12,32,3.20
2013,02,26,12,33,4.80
2013,02,26,12,34,6.40
2013,02,26,12,35,9.60
2013,02,26,12,36,9.60
2013,02,26,12,37,9.60
2013,02,26,12,38,14.50
2013,02,26,12,39,14.50
2013,02,26,12,40,8.10
2013,02,26,12,41,17.70
2013,02,26,12,42,9.60
2013,02,26,12,43,4.80
2013,02,26,12,44,6.40
2013,02,26,12,45,20.90
2013,02,26,12,46,17.70
2013,02,26,12,47,12.90
2013,02,26,12,48,8.10
2013,02,26,12,49,8.10
2013,02,26,12,50,11.30
2013,02,26,12,51,9.60
2013,02,26,12,52,9.60
2013,02,26,12,53,8.10
2013,02,26,12,54,4.80
2013,02,26,12,55,8.10
2013,02,26,12,56,11.30
2013,02,26,12,57,16.10
2013,02,26,12,58,11.30
2013,02,26,12,59,14.50
2013,02,26,13,00,11.30
2013,02,26,13,01,9.60
2013,02,26,13,02,16.10
2013,02,26,13,03,12.90
2013,02,26,13,04,8.10
2013,02,26,13,05,16.10
2013,02,26,13,06,8.10
2013,02,26,13,07,14.50
2013,02,26,13,08,11.30
2013,02,26,13,09,6.40
2013,02,26,13,10,9.60
2013,02,26,13,11,8.10
2013,02,26,13,12,8.10
2013,02,26,13,13,9.60
2013,02,26,13,14,9.60
2013,02,26,13,15,16.10
2013,02,26,13,16,17.70
2013,02,26,13,17,11.30
2013,02,26,13,18,8.10
2013,02,26,13,19,14.50
2013,02,26,13,20,8.10
2013,02,26,13,21,6.40
2013,02,26,13,22,6.40
2013,02,26,13,23,4.80
2013,02,26,13,24,11.30
2013,02,26,13,25,8.10
2013,02,26,13,26,6.40
2013,02,26,13,27,9.60
2013,02,26,13,28,8.10
2013,02,26,13,29,4.80
2013,02,26,13,32,1.60
2013,02,26,13,33,1.60
2013,02,26,13,34,4.80
2013,02,26,13,35,4.80
2013,02,26,13,36,6.40
2013,02,26,13,37,6.40
2013,02,26,13,38,6.40
2013,02,26,13,39,6.40
2013,02,26,13,40,3.20
2013,02,26,13,41,3.20
2013,02,26,13,42,3.20
2013,02,26,13,43,4.80
2013,02,26,13,44,4.80
2013,02,26,13,45,4.80
2013,02,26,13,46,6.40
2013,02,26,13,47,8.10
2013,02,26,13,48,8.10
2013,02,26,13,49,8.10
2013,02,26,13,50,8.10
2013,02,26,13,51,4.80
2013,02,26,13,52,3.20
2013,02,26,13,53,9.60
2013,02,26,13,54,8.10
2013,02,26,13,55,6.40
2013,02,26,13,56,6.40
2013,02,26,13,57,3.20
2013,02,26,13,58,6.40
2013,02,26,13,59,1.60
2013,02,26,14,00,4.80
2013,02,26,14,01,6.40
2013,02,26,14,02,6.40
2013,02,26,14,03,4.80
2013,02,26,14,04,6.40
2013,02,26,14,05,6.40
2013,02,26,14,06,6.40
2013,02,26,14,07,9.60
2013,02,26,14,08,8.10
2013,02,26,14,09,11.30
2013,02,26,14,10,9.60
2013,02,26,14,11,4.80
2013,02,26,14,12,6.40
2013,02,26,14,13,8.10
2013,02,26,14,14,8.10
2013,02,26,14,15,9.60
2013,02,26,14,16,9.60
2013,02,26,14,17,6.40
2013,02,26,14,18,11.30
2013,02,26,14,19,8.10
2013,02,26,14,20,4.80
2013,02,26,14,21,6.40
2013,02,26,14,22,6.40
2013,02,26,14,23,8.10
2013,02,26,14,24,4.80
2013,02,26,14,25,1.60
2013,02,26,14,26,1.60
2013,02,26,14,27,1.60
2013,02,26,14,28,9.60
2013,02,26,14,29,4.80
2013,02,26,14,30,6.40
2013,02,26,14,31,4.80
2013,02,26,14,32,9.60
2013,02,26,14,33,4.80
2013,02,26,14,34,6.40
2013,02,26,14,35,1.60
2013,02,26,14,36,4.80
2013,02,26,14,37,1.60
2013,02,26,14,38,6.40
2013,02,26,14,39,3.20
2013,02,26,14,40,4.80
2013,02,26,14,41,4.80
2013,02,26,14,42,4.80
2013,02,26,14,43,4.80
2013,02,26,14,44,4.80
2013,02,26,14,45,6.40
2013,02,26,14,46,6.40
2013,02,26,14,47,4.80
2013,02,26,14,48,3.20
2013,02,26,14,49,3.20
2013,02,26,14,50,4.80
2013,02,26,14,51,4.80
2013,02,26,14,52,6.40
2013,02,26,14,53,3.20
2013,02,26,14,54,3.20
2013,02,26,14,55,3.20
2013,02,26,14,56,1.60
2013,02,26,14,57,1.60
2013,02,26,15,00,1.60
2013,02,26,15,01,1.60
2013,02,26,15,02,3.20
2013,02,26,15,03,1.60
2013,02,26,15,06,3.20
2013,02,26,15,07,4.80
2013,02,26,15,08,4.80
2013,02,26,15,09,3.20
2013,02,26,15,10,4.80
2013,02,26,15,11,4.80
2013,02,26,15,12,1.60
2013,02,26,15,13,1.60
2013,02,26,15,14,4.80
2013,02,26,15,15,1.60
2013,02,26,15,16,4.80
2013,02,26,15,17,3.20
2013,02,26,15,18,3.20
2013,02,26,15,19,1.60
2013,02,26,15,20,3.20
2013,02,26,15,21,3.20
2013,02,26,15,22,4.80
2013,02,26,15,23,3.20
2013,02,26,15,25,1.60
2013,02,26,15,26,1.60
2013,02,26,15,28,1.60
2013,02,26,15,29,3.20
2013,02,26,15,30,3.20
2013,02,26,15,32,4.80
2013,02,26,15,33,1.60
2013,02,26,15,34,1.60
2013,02,26,15,35,4.80
2013,02,26,15,36,3.20
2013,02,26,15,37,4.80
2013,02,26,15,38,4.80
2013,02,26,15,39,1.60
2013,02,26,15,40,3.20
2013,02,26,15,41,1.60
2013,02,26,15,45,1.60
2013,02,26,15,46,3.20
2013,02,26,15,47,1.60
2013,02,26,15,48,3.20
2013,02,26,15,49,1.60
2013,02,26,15,50,1.60
2013,02,26,15,55,3.20
2013,02,26,15,56,4.80
2013,02,26,15,57,1.60
2013,02,26,16,02,3.20
2013,02,26,16,03,3.20
2013,02,26,16,06,3.20
2013,02,26,16,07,4.80
2013,02,26,16,08,1.60
2013,02,26,16,09,3.20
2013,02,26,16,10,3.20
2013,02,26,16,11,4.80
2013,02,26,16,12,4.80
2013,02,26,16,13,4.80
2013,02,26,16,14,4.80
2013,02,26,16,16,3.20
2013,02,26,16,17,3.20
2013,02,26,16,18,4.80
2013,02,26,16,19,3.20
2013,02,26,16,20,3.20
2013,02,26,16,21,9.60
2013,02,26,16,22,6.40
2013,02,26,16,23,6.40
2013,02,26,16,24,4.80
2013,02,26,16,25,3.20
2013,02,26,16,26,3.20
2013,02,26,16,29,3.20
2013,02,26,16,31,1.60
2013,02,26,16,36,1.60
2013,02,26,16,38,1.60
2013,02,26,17,01,1.60
2013,02,26,17,04,1.60
2013,02,26,17,17,4.80
2013,02,26,17,18,1.60
2013,02,26,17,24,3.20
2013,02,26,17,25,1.60
2013,02,26,17,40,1.60
2013,02,26,17,53,1.60
2013,02,26,17,56,1.60
2013,02,26,17,57,3.20
2013,02,26,17,58,3.20
2013,02,26,17,59,1.60
2013,02,26,18,01,4.80
2013,02,26,18,02,6.40
2013,02,26,18,03,4.80
2013,02,26,18,04,3.20
2013,02,26,18,07,4.80
2013,02,26,18,08,6.40
2013,02,26,18,09,3.20
2013,02,26,18,12,6.40
2013,02,26,18,13,6.40
2013,02,26,18,14,6.40
2013,02,26,18,15,4.80
2013,02,26,18,16,4.80
2013,02,26,18,18,1.60
2013,02,26,18,19,1.60
2013,02,26,18,20,3.20
2013,02,26,18,21,3.20
2013,02,26,18,22,3.20
2013,02,26,18,23,1.60
2013,02,26,18,24,3.20
2013,02,26,18,25,4.80
2013,02,26,18,26,6.40
2013,02,26,18,27,4.80
2013,02,26,18,28,4.80
2013,02,26,18,29,1.60
2013,02,26,18,31,6.40
2013,02,26,18,32,6.40
2013,02,26,18,33,1.60
2013,02,26,18,35,3.20
2013,02,26,18,36,3.20
2013,02,26,18,41,1.60
2013,02,26,18,42,3.20
2013,02,26,18,45,4.80
2013,02,26,18,46,3.20
2013,02,26,18,48,3.20
2013,02,26,18,49,3.20
2013,02,26,18,50,3.20
2013,02,26,18,51,1.60
2013,02,26,18,52,8.10
2013,02,26,18,53,3.20
2013,02,26,18,54,1.60
2013,02,26,18,57,3.20
2013,02,26,18,58,6.40
2013,02,26,18,59,6.40
2013,02,26,19,00,1.60
2013,02,26,19,01,3.20
2013,02,26,19,02,4.80
2013,02,26,19,03,4.80
2013,02,26,19,04,4.80
2013,02,26,19,05,3.20
2013,02,26,19,06,1.60
2013,02,26,19,07,1.60
2013,02,26,19,10,4.80
2013,02,26,19,14,1.60
2013,02,26,19,16,1.60
2013,02,26,19,17,3.20
2013,02,26,19,19,3.20
2013,02,26,19,20,3.20
2013,02,26,19,21,6.40
2013,02,26,19,22,6.40
2013,02,26,19,23,6.40
2013,02,26,19,24,3.20
2013,02,26,19,25,6.40
2013,02,26,19,26,8.10
2013,02,26,19,27,6.40
2013,02,26,19,28,1.60
2013,02,26,19,29,4.80
2013,02,26,19,30,1.60
2013,02,26,19,37,6.40
2013,02,26,19,38,4.80
2013,02,26,19,39,4.80
2013,02,26,19,40,4.80
2013,02,26,19,41,4.80
2013,02,26,19,43,1.60
2013,02,26,19,44,1.60
2013,02,26,19,45,3.20
2013,02,26,19,46,3.20
2013,02,26,19,47,3.20
2013,02,26,19,48,1.60
2013,02,26,19,50,1.60
2013,02,26,19,51,1.60
2013,02,26,19,52,1.60
2013,02,26,19,56,6.40
2013,02,26,19,57,4.80
2013,02,26,19,58,1.60
2013,02,26,20,23,1.60
2013,02,26,20,24,4.80
2013,02,26,20,25,3.20
2013,02,26,21,08,1.60
2013,02,26,21,09,3.20
2013,02,26,21,10,1.60
2013,02,26,21,16,3.20
2013,02,26,21,17,1.60
2013,02,26,21,18,1.60
2013,02,26,21,32,1.60
2013,02,26,21,33,3.20
2013,02,26,21,34,1.60
2013,02,26,21,35,1.60
2013,02,26,21,36,1.60
2013,02,26,21,37,1.60
2013,02,26,21,38,3.20
2013,02,26,21,39,3.20
2013,02,26,21,40,4.80
2013,02,26,21,41,3.20
2013,02,26,21,42,1.60
2013,02,26,21,44,1.60
2013,02,26,21,46,1.60
2013,02,26,21,47,1.60
2013,02,26,21,48,3.20
2013,02,26,21,49,3.20
2013,02,26,21,50,3.20
2013,02,26,21,51,3.20
2013,02,26,21,52,9.60
2013,02,26,21,53,8.10
2013,02,26,21,54,6.40
2013,02,26,21,55,4.80
2013,02,26,21,56,1.60
2013,02,26,21,57,4.80
2013,02,26,21,58,3.20
2013,02,26,21,59,4.80
2013,02,26,22,00,6.40
2013,02,26,22,01,3.20
2013,02,26,22,02,1.60
2013,02,26,22,03,4.80
2013,02,26,22,07,1.60
2013,02,26,22,11,4.80
2013,02,26,22,12,4.80
2013,02,26,22,13,6.40
2013,02,26,22,14,1.60
2013,02,26,22,15,3.20
2013,02,26,22,16,6.40
2013,02,26,22,17,4.80
2013,02,26,22,18,8.10
2013,02,26,22,19,6.40
2013,02,26,22,20,1.60
2013,02,26,22,22,1.60
2013,02,26,22,23,1.60
2013,02,26,22,33,1.60
2013,02,26,22,34,1.60
2013,02,26,22,35,1.60
2013,02,26,22,49,1.60
2013,02,26,22,50,3.20
2013,02,26,22,51,1.60
2013,02,26,22,52,1.60
2013,02,26,23,02,1.60
2013,02,26,23,03,1.60
2013,02,26,23,06,1.60
2013,02,26,23,07,1.60
2013,02,26,23,08,3.20
2013,02,26,23,09,3.20
2013,02,26,23,10,3.20
2013,02,26,23,12,1.60
2013,02,26,23,18,3.20
2013,02,26,23,19,3.20
2013,02,26,23,20,3.20
2013,02,26,23,21,4.80
2013,02,26,23,22,3.20
2013,02,26,23,23,4.80
2013,02,26,23,24,4.80
2013,02,26,23,25,1.60
2013,02,26,23,28,1.60
2013,02,26,23,29,1.60
2013,02,26,23,30,3.20
2013,02,26,23,32,1.60
2013,02,26,23,33,4.80
2013,02,26,23,35,1.60
2013,02,26,23,36,3.20
2013,02,26,23,37,3.20
2013,02,26,23,38,4.80
2013,02,26,23,39,4.80
2013,02,26,23,40,6.40
2013,02,26,23,42,1.60
2013,02,26,23,43,3.20
2013,02,26,23,44,3.20
2013,02,26,23,45,4.80
2013,02,26,23,46,1.60
2013,02,26,23,47,3.20
2013,02,26,23,48,4.80
2013,02,26,23,49,3.20
2013,02,26,23,50,6.40
2013,02,26,23,51,1.60
2013,02,26,23,52,3.20
2013,02,26,23,53,3.20
2013,02,26,23,54,1.60
2013,02,26,23,55,3.20
2013,02,26,23,59,3.20
